User: anonymous   Login
Location: Unspecified
(0.0000°N, 0.0000°E)
Time: 18:53:07
(UTC+00:00)
Language:

STUDSAT - Orbit

View from above orbital plane
View from above orbital plane
View from above satellite
View from above satellite

Ground track
Ground track

The orbit data is extracted from the following two-line orbital elements,

1 36796U 10035B   19341.40055253  .00000166  00000-0  24606-4 0  9997
2 36796  98.1316 120.0505 0011498 268.5508  91.4390 14.87716024509618
Epoch (UTC): 07 December 2019 09:36:47
Eccentricity: 0.0011498
inclination: 98.1316°
perigee height: 597 km
apogee height: 613 km
right ascension of ascending node: 120.0505°
argument of perigee: 268.5508°
revolutions per day: 14.87716024
mean anomaly at epoch: 91.4390°
orbit number at epoch: 50961

The dashed part of the orbit path shows where the satellite is in the earth's shadow,  

DLR